Location: Kerguer�zec
(48.4509°N, 4.7600°W)
Time: 01:00:36
(UTC+00:00)

ISS - Pass Details

Date: 02 March 2021
Orbit: 418 x 422 km, 51.6° (Epoch: 10 April)

Event Time Altitude Azimuth Distance (km) Brightness Sun altitude
Exits shadow 06:09:24 11° 290° (WNW) 1,421 -1.7 -8.9°
Maximum altitude 06:12:28 48° 5° (N) 556 -3.1 -8.4°
Drops below altitude 10° 06:15:45 10° 82° (E) 1,501 0.7 -7.9°
Sets 06:17:54 0° 88° (E) 2,365 2.6 -7.5°
